Temp
17 17 17 19 20 22 22 23 24 24 26 24 24 24 25 26 25 25 23 23 22 21 20 17 14 13 12 11 10 10 10 10 9 9 9 9 9 9 8 9 9 10 10 10
16 16 19 20 21 21 21 22 22 24 24 22 23 24 25 26 26 25 24 24 23 21 20 17 15 13 12 10 10 10 10 9 9 9 9 9 9 8 9 10 10 10 11 11
16 19 19 19 20 21 21 21 22 22 24 23 23 23 25 26 26 25 24 24 24 22 21 18 16 13 11 11 10 10 10 10 9 9 9 9 8 8 8 8 9 10 11 9
14 19 18 19 20 21 20 22 22 22 22 21 24 22 24 26 26 26 25 24 24 23 21 20 17 15 12 12 10 10 9 10 9 9 9 9 9 8 9 8 9 9 11 11
16 17 18 18 20 20 20 22 22 21 21 21 22 21 24 26 26 26 26 25 24 23 22 21 18 16 14 13 10 9 9 9 10 9 9 9 9 9 9 9 9 9 9 10
17 18 18 16 19 20 21 20 21 21 21 19 21 22 23 25 26 26 27 26 25 23 22 21 19 17 15 14 12 10 10 10 10 9 9 9 9 9 9 9 9 9 9 10
16 16 19 18 17 20 20 19 18 18 19 18 22 21 22 25 26 26 26 26 25 24 23 21 20 18 16 14 13 10 9 9 10 9 10 9 9 9 9 9 10 9 9 9
15 14 17 18 17 18 19 19 18 17 18 20 23 21 23 25 25 25 25 25 25 24 23 22 20 18 17 15 13 12 10 10 9 9 9 9 9 9 8 9 9 10 11 11
15 17 19 19 18 18 19 18 20 19 19 19 22 22 25 24 24 25 25 25 25 24 23 22 21 19 18 16 14 13 12 11 10 9 9 9 10 9 9 9 9 9 10 11
16 15 19 18 18 18 18 21 18 19 16 16 21 21 21 23 24 24 25 25 25 24 24 23 21 20 19 17 16 13 13 13 12 10 10 9 10 10 10 9 10 10 10 10
16 16 16 17 17 17 17 17 19 20 19 18 18 21 24 22 22 22 23 24 23 23 22 23 22 21 20 18 16 14 13 14 13 12 10 9 9 10 10 10 10 10 10 10
15 15 15 15 18 19 19 18 18 18 17 19 19 19 23 22 21 21 22 23 23 23 23 22 22 21 20 18 17 15 13 13 14 13 12 11 11 10 10 10 10 10 10 10
12 14 14 16 17 18 18 19 19 19 19 16 16 19 23 22 22 21 21 22 22 22 22 22 22 21 19 18 17 16 14 13 14 13 13 12 11 11 11 11 11 10 10 10
11 13 15 15 16 18 17 18 18 18 17 17 17 19 21 20 21 21 21 21 20 21 21 22 22 22 20 19 18 17 16 14 14 14 13 12 12 13 13 12 11 11 11 10
10 11 13 16 16 16 18 17 17 17 18 17 18 18 20 21 21 21 20 19 19 20 19 19 20 21 21 21 19 18 17 16 15 14 14 13 14 13 11 11 11 11 10 10
10 9 11 12 15 15 15 16 17 17 18 17 18 18 20 21 20 20 19 18 18 18 17 16 16 17 18 20 20 19 18 17 16 14 14 14 13 12 11 11 11 10 10 10
11 11 9 9 13 14 13 15 16 17 18 18 17 19 20 19 19 18 18 17 17 16 15 14 14 15 15 17 18 18 19 17 16 15 14 14 13 12 12 11 11 11 10 10
10 11 12 10 11 9 15 17 17 17 18 19 18 18 18 18 17 17 17 16 15 14 14 14 14 13 13 14 16 17 18 18 17 16 15 14 14 13 12 12 11 11 11 10
11 10 10 11 12 14 16 16 16 16 17 17 17 17 17 16 16 17 15 14 14 14 13 12 12 12 12 12 13 15 17 17 18 17 16 15 14 13 13 12 12 11 11 11
11 10 10 10 10 11 15 16 15 16 15 17 16 15 15 15 15 17 14 13 13 13 12 11 10 10 10 10 11 13 16 17 17 18 17 16 15 14 13 13 12 11 10 10
9 9 8 10 10 12 15 16 15 13 13 14 14 14 14 14 14 14 13 12 12 11 11 9 8 7 6 6 5 8 11 14 16 16 17 16 15 14 13 12 12 11 10 9
9 8 8 9 9 9 15 14 13 12 12 12 12 12 11 12 13 13 12 11 11 10 9 8 6 4 6 6 6 6 7 10 12 14 14 15 14 14 13 12 12 11 10 10
9 11 11 11 12 13 14 12 11 10 11 10 10 10 10 11 11 11 11 11 8 7 5 4 3 3 6 5 4 4 6 6 8 8 11 12 12 11 11 10 10 10 9 9
12 9 11 9 13 12 13 11 10 9 9 9 8 9 8 8 8 8 7 7 5 3 2 1 2 3 4 6 3 1 2 4 5 7 7 8 8 8 9 8 8 8 7 6
12 11 12 12 13 13 13 10 8 7 8 7 7 7 6 6 6 5 5 2 -0 -1 -2 -2 1 -2 2 4 1 -0 -1 0 2 4 4 5 5 5 4 5 4 4 3 4
12 12 11 11 10 10 11 8 6 6 6 5 4 4 3 3 2 2 0 -3 -4 -4 -3 -2 -2 -1 -2 2 -0 -2 -1 -2 -1 0 -0 0 1 0 -1 -1 -2 -2 -1 -0
Height
1449 1452 1442 1441 1437 1432 1429 1420 1419 1416 1412 1421 1423 1421 1415 1418 1418 1422 1427 1428 1432 1436 1440 1445 1448 1450 1451 1452 1452 1456 1460 1462 1465 1469 1472 1476 1481 1488 1493 1502 1507 1513 1517 1523
1449 1440 1437 1435 1432 1431 1431 1428 1427 1417 1416 1428 1423 1417 1411 1411 1411 1415 1418 1422 1426 1431 1436 1441 1444 1446 1448 1449 1450 1453 1457 1461 1465 1469 1473 1477 1482 1486 1494 1499 1504 1510 1515 1519
1440 1430 1433 1433 1428 1427 1426 1428 1427 1426 1415 1424 1423 1418 1409 1405 1406 1410 1414 1416 1418 1424 1430 1436 1441 1443 1445 1446 1446 1449 1454 1459 1463 1467 1473 1477 1484 1490 1493 1496 1503 1508 1513 1518
1443 1426 1427 1430 1425 1424 1427 1421 1424 1426 1426 1428 1408 1424 1403 1398 1398 1403 1408 1412 1414 1417 1423 1430 1436 1440 1442 1444 1445 1446 1451 1456 1460 1464 1469 1472 1476 1481 1487 1493 1499 1506 1511 1513
1432 1424 1425 1427 1420 1421 1421 1420 1418 1425 1426 1424 1418 1422 1405 1391 1393 1393 1396 1401 1408 1413 1417 1422 1429 1434 1438 1441 1441 1443 1446 1452 1456 1460 1464 1470 1474 1479 1484 1490 1496 1503 1507 1511
1426 1423 1423 1430 1423 1419 1418 1423 1421 1424 1423 1431 1419 1417 1406 1392 1386 1390 1391 1393 1399 1407 1413 1418 1424 1430 1435 1437 1439 1440 1443 1446 1451 1456 1461 1465 1471 1475 1480 1485 1490 1497 1503 1508
1423 1423 1418 1423 1426 1417 1418 1422 1431 1434 1427 1428 1407 1412 1404 1385 1386 1389 1391 1392 1395 1402 1409 1414 1419 1424 1428 1433 1435 1436 1439 1442 1446 1451 1456 1461 1466 1471 1475 1481 1485 1490 1494 1498
1423 1426 1415 1416 1422 1418 1416 1416 1420 1431 1421 1409 1396 1408 1393 1383 1387 1390 1391 1392 1396 1402 1407 1410 1414 1419 1423 1427 1430 1432 1434 1439 1441 1445 1450 1456 1462 1466 1471 1475 1480 1484 1486 1492
1417 1410 1403 1409 1414 1417 1412 1415 1409 1412 1412 1411 1390 1394 1383 1384 1388 1388 1390 1392 1395 1399 1404 1408 1411 1414 1418 1422 1425 1427 1430 1434 1437 1440 1446 1450 1456 1460 1464 1470 1475 1478 1481 1486
1415 1417 1401 1406 1414 1413 1409 1402 1414 1411 1429 1431 1399 1397 1400 1387 1388 1386 1387 1389 1393 1394 1397 1402 1407 1410 1413 1418 1422 1423 1426 1429 1433 1436 1439 1444 1449 1455 1460 1465 1468 1471 1475 1481
1414 1414 1410 1406 1407 1408 1411 1409 1403 1400 1405 1415 1416 1398 1374 1385 1393 1396 1393 1391 1395 1399 1402 1400 1402 1405 1410 1414 1417 1419 1421 1425 1429 1431 1433 1437 1442 1448 1454 1458 1462 1465 1470 1473
1416 1412 1408 1408 1397 1396 1395 1399 1402 1403 1411 1400 1404 1404 1387 1392 1397 1399 1399 1398 1399 1400 1399 1401 1401 1403 1406 1410 1415 1416 1416 1418 1422 1427 1429 1430 1435 1440 1444 1447 1451 1457 1462 1467
1425 1412 1413 1401 1401 1397 1396 1393 1393 1395 1398 1418 1417 1405 1386 1390 1396 1400 1402 1401 1400 1400 1399 1400 1400 1402 1404 1406 1410 1412 1413 1412 1416 1421 1423 1425 1428 1431 1433 1435 1441 1447 1451 1456
1431 1415 1405 1403 1395 1386 1394 1392 1393 1393 1405 1405 1405 1397 1387 1395 1394 1396 1398 1400 1402 1402 1401 1400 1400 1399 1401 1403 1404 1407 1408 1410 1412 1415 1417 1418 1417 1419 1423 1428 1432 1436 1441 1444
1435 1420 1410 1397 1398 1396 1387 1393 1400 1401 1397 1402 1397 1396 1389 1392 1396 1397 1399 1401 1402 1402 1403 1402 1401 1399 1398 1398 1400 1400 1401 1403 1404 1407 1409 1406 1406 1411 1417 1421 1424 1428 1431 1433
1432 1429 1422 1414 1404 1404 1402 1398 1396 1397 1398 1400 1397 1397 1392 1393 1395 1400 1402 1403 1403 1401 1404 1406 1404 1401 1400 1396 1395 1396 1396 1395 1397 1398 1398 1401 1405 1406 1407 1410 1413 1418 1421 1425
1427 1426 1430 1427 1412 1409 1411 1401 1399 1398 1395 1397 1399 1392 1392 1396 1400 1404 1404 1405 1404 1404 1404 1404 1403 1401 1398 1395 1392 1392 1391 1391 1391 1389 1389 1394 1396 1397 1398 1400 1405 1406 1410 1415
1427 1420 1419 1419 1417 1429 1395 1392 1391 1393 1392 1390 1392 1395 1400 1402 1404 1405 1405 1403 1406 1407 1405 1402 1401 1398 1395 1392 1389 1387 1385 1384 1383 1382 1382 1384 1386 1388 1391 1393 1395 1398 1401 1403
1424 1421 1415 1412 1406 1395 1388 1392 1395 1396 1393 1393 1396 1400 1403 1405 1406 1400 1404 1408 1409 1408 1406 1403 1398 1393 1389 1386 1384 1382 1379 1378 1376 1374 1374 1374 1375 1378 1382 1383 1384 1387 1393 1396
1418 1422 1421 1414 1415 1408 1393 1389 1398 1396 1400 1395 1402 1405 1406 1407 1405 1396 1405 1408 1408 1406 1404 1400 1395 1390 1385 1382 1378 1375 1373 1371 1369 1368 1366 1366 1368 1369 1371 1374 1378 1381 1384 1387
1412 1417 1419 1415 1412 1402 1392 1395 1401 1405 1407 1405 1409 1409 1410 1409 1408 1406 1408 1408 1408 1406 1401 1398 1393 1388 1381 1374 1371 1369 1368 1364 1363 1362 1361 1362 1362 1361 1364 1367 1373 1371 1370 1375
1405 1414 1415 1416 1416 1412 1396 1397 1403 1407 1407 1410 1413 1413 1413 1410 1407 1404 1406 1406 1405 1403 1399 1394 1388 1382 1374 1368 1363 1358 1359 1355 1353 1352 1352 1351 1352 1353 1353 1354 1355 1363 1368 1369
1404 1400 1399 1401 1400 1397 1397 1403 1408 1411 1411 1412 1412 1412 1412 1409 1407 1406 1405 1404 1403 1401 1398 1392 1386 1378 1372 1366 1361 1356 1353 1351 1349 1347 1346 1344 1346 1349 1349 1352 1355 1357 1361 1364
1391 1402 1397 1403 1392 1399 1398 1404 1408 1411 1412 1412 1412 1411 1412 1409 1408 1406 1405 1404 1402 1399 1394 1388 1382 1376 1370 1363 1360 1356 1351 1348 1345 1343 1342 1340 1339 1343 1346 1349 1352 1354 1357 1360
1390 1394 1392 1394 1393 1395 1397 1405 1410 1411 1411 1411 1411 1412 1411 1409 1408 1407 1405 1402 1399 1396 1391 1388 1382 1377 1369 1360 1360 1357 1352 1348 1346 1341 1338 1335 1335 1338 1344 1345 1350 1353 1355 1358
1392 1391 1394 1394 1401 1402 1402 1408 1410 1411 1412 1413 1413 1412 1412 1411 1409 1407 1405 1402 1399 1395 1390 1386 1383 1377 1371 1361 1362 1362 1354 1352 1350 1342 1340 1337 1330 1343 1349 1344 1349 1356 1359 1361
Wind_Speed
20 15 21 25 24 22 20 18 15 13 5 8 14 16 14 17 15 14 15 16 16 16 13 14 14 13 13 14 17 18 17 16 15 21 32 32 33 35 42 38 33 34 29 30
15 22 21 22 24 23 24 24 15 14 2 7 14 16 18 14 14 15 15 18 16 15 16 17 16 16 16 17 18 19 21 21 19 22 34 33 37 42 46 45 34 38 35 34
23 19 20 22 21 22 21 22 18 17 7 9 15 18 19 14 18 13 14 15 14 16 19 19 19 18 17 18 19 23 22 24 24 24 32 30 38 38 44 43 39 43 37 28
19 23 10 20 24 18 21 18 19 16 15 13 12 15 17 19 19 15 18 18 16 16 18 21 22 21 19 19 19 22 24 25 27 27 33 35 39 44 49 49 47 44 38 33
19 10 18 23 19 20 21 15 15 16 17 15 17 9 12 13 13 15 15 20 19 17 19 22 24 23 21 20 21 21 25 27 30 31 32 34 37 39 51 49 47 43 39 39
18 17 14 14 19 18 16 11 11 13 14 15 18 15 11 12 14 10 11 13 16 16 17 20 23 23 22 21 21 22 24 29 29 32 33 36 37 40 47 54 53 47 40 40
20 21 14 13 19 18 18 14 9 11 12 14 14 13 14 4 4 6 5 8 14 12 15 19 24 26 25 25 25 24 26 27 33 35 35 37 41 44 42 49 48 58 45 41
18 15 22 12 15 18 20 18 9 14 11 14 19 8 11 7 2 4 10 12 2 8 12 16 23 27 27 28 28 27 26 27 31 38 37 36 35 41 39 46 50 55 59 54
12 21 10 14 12 15 17 21 21 18 10 7 7 10 12 3 7 6 6 7 9 10 12 14 18 26 28 29 30 29 27 27 28 32 40 40 40 37 39 40 43 49 55 59
13 10 15 14 14 19 22 12 18 11 12 12 10 11 8 9 10 5 3 8 5 3 10 14 16 22 28 29 29 29 29 29 28 29 35 40 42 42 42 43 42 46 50 53
14 11 9 11 18 19 15 18 13 15 14 9 12 9 5 10 11 6 6 7 11 9 7 8 11 16 24 28 30 30 30 30 30 30 31 32 41 41 41 42 48 44 42 47
15 6 11 18 20 20 18 21 20 10 9 12 8 2 8 8 7 6 6 2 5 6 6 6 5 10 18 25 29 31 30 32 32 33 33 34 33 37 43 46 47 48 44 44
13 8 9 15 11 9 14 19 20 20 14 12 9 6 6 5 2 2 8 11 10 10 13 11 4 6 14 21 28 31 31 32 32 33 36 39 41 41 43 45 48 48 49 47
13 11 14 12 12 13 15 7 10 10 10 13 14 13 8 3 10 10 11 14 16 15 16 16 15 9 11 17 24 30 32 31 31 33 36 39 44 45 46 46 47 48 49 48
5 6 11 9 5 5 6 14 11 12 12 10 12 10 8 6 8 12 13 15 18 18 18 20 21 17 16 16 21 26 30 32 34 36 37 43 46 46 41 42 43 46 45 48
7 3 9 8 6 6 7 9 11 13 12 12 14 14 13 14 5 9 12 16 19 22 21 20 21 21 20 20 19 23 27 32 33 36 43 43 39 40 43 43 45 43 44 44
8 7 4 4 7 8 8 14 14 13 14 13 13 9 9 6 6 10 16 18 18 18 24 25 24 23 22 22 19 19 24 26 31 37 41 39 41 41 44 44 40 43 44 41
12 10 10 5 5 4 6 5 3 12 13 11 7 4 4 5 6 10 14 10 15 18 23 26 26 25 24 23 23 23 21 25 30 33 36 37 39 42 40 40 42 42 42 42
15 11 5 5 7 10 5 3 9 7 7 3 2 3 3 6 9 10 12 13 16 18 21 24 27 28 26 24 24 25 25 24 28 32 35 36 38 39 38 39 42 41 39 37
16 12 9 5 11 11 5 3 2 3 7 11 5 4 7 10 6 6 15 15 18 21 22 25 26 25 25 24 23 23 25 26 27 31 35 35 32 35 37 37 35 35 33 34
14 12 14 11 8 6 8 9 0 11 5 10 6 8 11 8 10 13 13 14 16 20 24 25 24 23 24 27 26 23 24 26 27 26 27 29 32 33 33 30 29 38 42 40
13 10 9 13 10 13 8 3 7 8 5 8 8 10 10 12 13 11 11 16 18 21 23 24 25 25 30 31 31 28 22 21 19 23 21 28 31 33 36 41 42 37 36 35
9 10 8 11 9 3 3 8 9 7 7 10 11 11 12 15 16 15 14 17 17 19 20 22 24 26 29 30 27 23 21 25 25 22 25 30 33 31 32 32 33 33 32 30
9 9 4 1 7 9 6 7 7 9 10 11 12 14 14 14 15 14 15 16 17 18 21 24 27 28 30 32 27 22 20 19 19 17 20 23 25 26 25 25 27 29 28 26
7 3 9 8 9 7 7 8 7 10 12 14 15 16 15 16 14 15 15 15 16 17 19 20 25 25 27 25 26 20 14 12 14 15 18 22 23 23 25 25 22 22 22 21
8 6 5 4 10 9 8 9 9 13 14 15 16 16 14 13 14 14 11 13 15 17 19 19 20 20 21 22 20 17 11 5 8 14 17 22 27 24 25 29 29 21 20 20
Wind_Direction
205 220 225 226 224 246 256 263 276 245 223 210 247 254 242 230 231 227 227 235 221 218 210 200 198 196 195 192 203 209 206 200 183 185 184 172 175 177 167 174 193 184 179 183
251 228 232 239 240 235 242 253 255 266 132 237 264 258 246 238 228 248 226 224 229 214 205 199 196 194 196 191 198 199 206 203 190 189 185 187 183 176 172 180 186 185 184 184
232 234 225 249 235 238 229 241 247 260 224 229 263 265 256 241 251 234 238 240 227 218 209 203 199 199 196 195 199 205 203 205 196 187 188 187 187 182 183 185 189 182 191 197
264 240 228 226 239 226 242 232 245 256 258 256 257 256 244 229 232 212 232 233 230 217 211 206 202 199 201 196 194 202 206 200 200 197 195 194 194 194 189 191 193 190 205 200
238 241 233 243 235 226 244 258 246 234 252 259 258 255 269 270 238 226 235 212 214 222 208 205 203 201 199 194 196 193 206 204 207 207 203 203 199 199 196 193 193 199 211 213
260 266 233 251 248 244 252 216 246 236 244 241 244 256 268 250 231 209 242 225 202 203 210 207 202 199 198 193 194 192 202 206 205 205 206 206 208 204 200 202 204 200 213 214
244 249 230 211 237 233 227 200 210 219 223 234 229 231 236 260 355 305 276 239 199 195 210 205 198 197 196 196 191 192 193 202 211 210 212 213 212 214 215 208 207 205 209 213
232 222 234 189 212 234 209 206 214 215 231 223 216 236 239 224 327 297 265 237 190 199 201 206 204 202 200 199 195 193 195 197 209 212 214 214 212 214 214 217 214 209 216 219
259 237 209 201 203 245 218 224 233 265 250 277 167 215 254 199 229 224 198 202 201 202 201 211 208 208 206 204 201 197 195 197 203 211 214 215 215 219 214 213 216 221 222 219
253 272 242 207 205 218 251 227 221 230 245 238 247 192 251 167 196 12 316 184 218 205 213 211 222 217 211 209 207 202 200 200 201 204 211 216 220 221 220 219 216 221 220 221
250 259 231 219 206 213 213 241 249 230 222 236 236 252 185 94 70 47 329 41 39 24 337 301 240 232 217 212 209 208 204 203 203 205 207 211 215 218 222 226 221 222 224 225
224 286 227 238 215 228 219 216 230 233 212 235 234 336 130 111 79 39 336 297 7 338 344 353 296 233 218 216 215 215 209 206 208 207 208 212 213 215 219 220 223 225 225 223
353 234 244 213 187 218 232 222 231 228 238 217 242 213 172 22 321 313 316 318 310 324 331 329 312 245 225 221 219 221 220 214 210 209 212 214 214 214 219 222 222 224 226 227
323 249 253 236 243 199 212 204 224 236 212 231 229 244 216 266 304 318 325 339 331 322 315 320 317 279 246 231 225 225 225 222 216 214 214 217 221 224 225 224 225 224 224 229
303 280 302 247 323 311 250 191 203 225 232 255 242 246 266 283 282 299 330 331 330 329 335 334 327 321 315 249 239 232 228 223 220 219 218 222 228 226 224 224 227 228 228 227
188 294 306 279 239 256 251 241 239 229 243 242 253 265 277 272 321 306 307 313 317 324 336 335 328 322 317 312 263 247 239 229 223 222 224 226 224 224 225 225 226 226 228 230
279 237 212 265 267 294 262 241 236 237 239 239 244 258 15 345 319 303 299 311 313 325 328 329 326 320 313 306 311 271 253 239 229 229 230 227 225 226 226 225 223 226 228 227
255 250 242 219 199 223 238 54 239 239 247 250 267 305 354 334 307 295 290 350 345 331 328 325 327 327 318 307 299 291 277 253 239 233 231 228 225 225 225 223 224 224 223 225
226 257 268 249 250 272 233 281 235 224 243 139 170 79 30 353 306 268 44 6 342 334 331 327 324 326 327 319 306 290 279 266 249 239 233 229 223 223 222 222 222 222 219 221
202 228 244 205 247 254 277 123 319 253 235 108 60 22 352 349 296 347 357 346 334 333 333 331 329 326 329 329 320 305 283 272 261 247 239 231 225 224 222 222 221 217 215 214
191 201 222 233 246 261 263 155 350 223 105 74 17 2 348 322 325 317 314 321 331 333 333 333 331 331 330 325 325 314 295 278 268 259 247 239 230 223 221 218 218 215 210 211
183 190 207 228 235 241 256 164 245 49 39 27 5 10 347 324 311 308 321 317 327 335 339 338 335 333 331 330 326 324 319 292 265 245 227 223 220 214 211 213 213 213 215 215
200 206 200 194 218 156 118 86 67 29 6 9 6 358 353 347 344 330 319 327 330 335 338 345 341 333 334 333 329 321 298 295 279 262 235 221 217 216 212 212 213 214 208 209
201 238 253 174 198 224 135 83 53 19 4 1 359 350 344 342 338 339 337 336 337 338 339 345 345 341 334 335 332 322 316 295 271 244 232 218 212 215 210 204 196 196 193 193
269 315 242 236 251 270 173 84 37 0 351 348 348 344 340 340 338 338 340 345 345 344 342 345 343 345 340 343 337 324 327 309 256 208 186 174 168 168 172 169 171 176 172 179
250 281 246 256 41 348 51 15 14 2 358 352 348 348 349 350 348 348 354 357 351 350 344 347 349 348 355 352 349 339 342 321 217 168 148 144 142 139 134 131 119 114 127 137